Weather History for North Platte, NE

Change the Weather History Date:

Tuesday, July 2, 2013

  Actual Average Record
Temperature  
Mean Temperature 63 °F 73 °F  
Max Temperature 82 °F 87 °F 108 °F (1990)
Min Temperature 44 °F 59 °F 44 °F (2013)
Degree Days  
Heating Degree Days 2 0  
Month to date heating degree days 4 0  
Since 1 June heating degree days 51 51  
Since 1 July heating degree days 4 0  
Cooling Degree Days 0 8  
Month to date cooling degree days 0 16  
Year to date cooling degree days 227 182  
Since 1 June cooling degree days 179 154  
Growing Degree Days 14 (Base 50)    
Moisture  
Dew Point 47 °F    
Average Humidity 62    
Maximum Humidity 93    
Minimum Humidity 30    
Precipitation  
Precipitation 0.00 in 0.09 in 2.75 in (1932)
Month to date precipitation 0.00 0.18  
Year to date precipitation 8.11 11.04  
Snow  
Snow 0.00 in 0.00 in 0.00 in (2002)
Month to date snowfall 0.0 0.0  
Since 1 June snowfall T 0.0  
Since 1 July snowfall 0.0 0.0  
Snow Depth -    
Sea Level Pressure  
Sea Level Pressure 30.16 in    
Wind  
Wind Speed 4 mph (ESE)    
Max Wind Speed 14 mph    
Max Gust Speed 17 mph    
Visibility 9 miles    
Events      
T = Trace of Precipitation, MM = Missing Value Source: NWS Daily Summary

Daily Weather History Graph

Daily Weather History Graph

Search for Another Location

Airport:

Trip Planner

Search our weather history database for the weather conditions in past years. The results will help you decide how hot, cold, wet, or windy it might be!

Date:

Astronomy

Jul. 02, 2013 Rise Set
Actual Time 6:14 AM CDT 9:18 PM CDT
Civil Twilight 5:41 AM CDT 9:52 PM CDT
Nautical Twilight 4:58 AM CDT 10:34 PM CDT
Astronomical Twilight 4:07 AM CDT 11:25 PM CDT
Moon 2:19 AM CDT (7/2) 4:33 PM CDT (7/2)
Length of Visible Light 16h 11m
Length of Day
15h 04m
Waning Crescent, 26% of the Moon is Illuminated
Jul 2
Waning Crescent
Jul 8
New
Jul 15
First Quarter
Jul 22
Full
Jul 29
Last Quarter

Hourly Weather History & Observations

Time (CDT) Temp. Dew Point Humidity Pressure Visibility Wind Dir Wind Speed Gust Speed Precip Events Conditions
12:53 AM 52.0 °F 46.9 °F 83% 30.21 in 9.0 mi East 3.5 mph - N/A   Clear
1:53 AM 50.0 °F 45.0 °F 83% 30.23 in 9.0 mi Calm Calm - N/A   Clear
2:53 AM 50.0 °F 45.0 °F 83% 30.22 in 9.0 mi Calm Calm - N/A   Clear
3:53 AM 46.9 °F 44.1 °F 90% 30.22 in 9.0 mi Calm Calm - N/A   Clear
4:53 AM 45.0 °F 42.1 °F 90% 30.22 in 8.0 mi Calm Calm - N/A   Clear
5:53 AM 46.0 °F 43.0 °F 89% 30.21 in 7.0 mi Calm Calm - N/A   Clear
6:53 AM 46.0 °F 42.1 °F 86% 30.22 in 6.0 mi Calm Calm - N/A   Clear
7:53 AM 52.0 °F 48.0 °F 86% 30.23 in 6.0 mi WNW 5.8 mph - N/A   Clear
9:53 AM 66.9 °F 51.1 °F 57% 30.22 in 7.0 mi WNW 3.5 mph - N/A   Clear
10:53 AM 73.0 °F 51.1 °F 46% 30.21 in 8.0 mi Calm Calm - N/A   Clear
11:53 AM 75.0 °F 48.9 °F 40% 30.20 in 10.0 mi South 4.6 mph - N/A   Clear
12:53 PM 79.0 °F 48.0 °F 34% 30.18 in 10.0 mi NNW 3.5 mph - N/A   Partly Cloudy
1:53 PM 80.1 °F 46.9 °F 31% 30.16 in 10.0 mi East 9.2 mph - N/A   Clear
2:53 PM 81.0 °F 46.0 °F 29% 30.14 in 10.0 mi SE 6.9 mph - N/A   Clear
3:53 PM 81.0 °F 46.0 °F 29% 30.13 in 10.0 mi SSW 4.6 mph - N/A   Clear
4:53 PM 81.0 °F 46.0 °F 29% 30.12 in 10.0 mi SE 5.8 mph - N/A   Clear
5:53 PM 81.0 °F 46.0 °F 29% 30.09 in 10.0 mi Variable 6.9 mph - N/A   Clear
6:53 PM 80.1 °F 46.0 °F 30% 30.09 in 10.0 mi ESE 11.5 mph - N/A   Clear
7:53 PM 77.0 °F 48.0 °F 36% 30.08 in 10.0 mi ESE 10.4 mph - N/A   Clear
8:53 PM 71.1 °F 48.0 °F 44% 30.08 in 10.0 mi SE 6.9 mph - N/A   Clear
9:53 PM 62.1 °F 48.0 °F 60% 30.09 in 10.0 mi ESE 5.8 mph - N/A   Clear
10:53 PM 57.9 °F 48.9 °F 72% 30.09 in 10.0 mi East 4.6 mph - N/A   Clear
11:53 PM 55.9 °F 48.0 °F 75% 30.10 in 10.0 mi ESE 4.6 mph - N/A   Clear